Time,TemperatureF,DewpointF,PressureIn,WindDirection,WindDirectionDegrees,WindSpeedMPH,WindSpeedGustMPH,Humidity,HourlyPrecipIn,Conditions,Clouds,dailyrainin,SoftwareType,DateUTC
2013-03-26 00:00:00,40.5,19.2,30.41,North,349,0.0,0.0,42,0.00,,,0.00,Wunderground v.1.15,2013-03-26 05:00:00,
2013-03-26 00:10:00,40.1,19.4,30.41,North,349,0.0,0.0,43,0.00,,,0.00,Wunderground v.1.15,2013-03-26 05:10:00,
2013-03-26 00:15:00,39.9,19.2,30.41,North,349,0.0,0.0,43,0.00,,,0.00,Wunderground v.1.15,2013-03-26 05:15:00,
2013-03-26 00:25:00,39.6,19.5,30.41,North,349,0.0,0.0,44,0.00,,,0.00,Wunderground v.1.15,2013-03-26 05:25:00,
2013-03-26 00:30:00,39.5,19.4,30.41,North,349,0.0,0.0,44,0.00,,,0.00,Wunderground v.1.15,2013-03-26 05:30:00,
2013-03-26 00:35:00,39.4,19.8,30.41,North,349,0.0,0.0,45,0.00,,,0.00,Wunderground v.1.15,2013-03-26 05:35:00,
2013-03-26 00:40:00,39.3,19.7,30.42,North,349,0.0,0.0,45,0.00,,,0.00,Wunderground v.1.15,2013-03-26 05:40:00,
2013-03-26 00:45:00,39.2,20.1,30.41,North,349,0.0,0.0,46,0.00,,,0.00,Wunderground v.1.15,2013-03-26 05:45:00,
2013-03-26 00:55:00,38.7,20.2,30.41,North,349,0.0,0.0,47,0.00,,,0.00,Wunderground v.1.15,2013-03-26 05:55:00,
2013-03-26 01:00:00,38.4,20.9,30.41,North,349,0.0,0.0,49,0.00,,,0.00,Wunderground v.1.15,2013-03-26 06:00:00,
2013-03-26 01:10:00,37.7,20.7,30.41,North,349,0.0,0.0,50,0.00,,,0.00,Wunderground v.1.15,2013-03-26 06:10:00,
2013-03-26 01:15:00,37.3,20.8,30.41,North,349,0.0,0.0,51,0.00,,,0.00,Wunderground v.1.15,2013-03-26 06:15:00,
2013-03-26 01:20:00,37.0,21.0,30.41,North,349,0.0,0.0,52,0.00,,,0.00,Wunderground v.1.15,2013-03-26 06:20:00,
2013-03-26 01:25:00,36.6,21.1,30.41,North,349,0.0,0.0,53,0.00,,,0.00,Wunderground v.1.15,2013-03-26 06:25:00,
2013-03-26 01:30:00,36.2,21.6,30.41,North,349,0.0,0.0,55,0.00,,,0.00,Wunderground v.1.15,2013-03-26 06:30:00,
2013-03-26 01:40:00,35.7,22.4,30.41,North,349,0.0,0.0,58,0.00,,,0.00,Wunderground v.1.15,2013-03-26 06:40:00,
2013-03-26 01:45:00,35.4,22.1,30.41,North,349,0.0,0.0,58,0.00,,,0.00,Wunderground v.1.15,2013-03-26 06:45:00,
2013-03-26 01:50:00,35.1,21.8,30.41,North,349,0.0,0.0,58,0.00,,,0.00,Wunderground v.1.15,2013-03-26 06:50:00,
2013-03-26 01:55:00,35.1,21.8,30.41,North,349,0.0,0.0,58,0.00,,,0.00,Wunderground v.1.15,2013-03-26 06:55:00,
2013-03-26 02:00:00,34.6,21.7,30.41,North,349,0.0,0.0,59,0.00,,,0.00,Wunderground v.1.15,2013-03-26 07:00:00,
2013-03-26 02:10:00,34.2,22.1,30.41,North,349,0.0,0.0,61,0.00,,,0.00,Wunderground v.1.15,2013-03-26 07:10:00,
2013-03-26 02:20:00,34.0,22.0,30.41,North,349,0.0,0.0,61,0.00,,,0.00,Wunderground v.1.15,2013-03-26 07:20:00,
2013-03-26 02:25:00,33.8,22.1,30.41,North,349,0.0,0.0,62,0.00,,,0.00,Wunderground v.1.15,2013-03-26 07:25:00,
2013-03-26 02:30:00,33.8,22.5,30.41,North,349,0.0,0.0,63,0.00,,,0.00,Wunderground v.1.15,2013-03-26 07:30:00,
2013-03-26 02:35:00,33.9,22.6,30.41,North,349,0.0,0.0,63,0.00,,,0.00,Wunderground v.1.15,2013-03-26 07:35:00,
2013-03-26 02:40:00,34.2,22.5,30.41,North,349,0.0,0.0,62,0.00,,,0.00,Wunderground v.1.15,2013-03-26 07:40:00,
2013-03-26 02:50:00,34.6,22.5,30.41,North,349,0.0,0.0,61,0.00,,,0.00,Wunderground v.1.15,2013-03-26 07:50:00,
2013-03-26 02:55:00,34.7,22.2,30.40,North,349,0.0,0.0,60,0.00,,,0.00,Wunderground v.1.15,2013-03-26 07:55:00,
2013-03-26 03:00:00,34.9,22.4,30.40,North,349,0.0,0.0,60,0.00,,,0.00,Wunderground v.1.15,2013-03-26 08:00:00,
2013-03-26 03:10:00,35.0,22.5,30.40,North,349,0.0,0.0,60,0.00,,,0.00,Wunderground v.1.15,2013-03-26 08:10:00,
2013-03-26 03:15:00,34.9,22.4,30.40,North,349,0.0,0.0,60,0.00,,,0.00,Wunderground v.1.15,2013-03-26 08:15:00,
2013-03-26 03:20:00,34.7,22.2,30.40,North,349,0.0,0.0,60,0.00,,,0.00,Wunderground v.1.15,2013-03-26 08:20:00,
2013-03-26 03:25:00,34.5,22.0,30.40,North,349,0.0,0.0,60,0.00,,,0.00,Wunderground v.1.15,2013-03-26 08:25:00,
2013-03-26 03:35:00,34.1,22.0,30.40,North,349,0.0,0.0,61,0.00,,,0.00,Wunderground v.1.15,2013-03-26 08:35:00,
2013-03-26 03:40:00,33.9,21.9,30.40,North,349,0.0,0.0,61,0.00,,,0.00,Wunderground v.1.15,2013-03-26 08:40:00,
2013-03-26 03:50:00,33.6,21.6,30.40,North,349,0.0,0.0,61,0.00,,,0.00,Wunderground v.1.15,2013-03-26 08:50:00,
2013-03-26 03:55:00,33.5,21.5,30.40,North,349,0.0,0.0,61,0.00,,,0.00,Wunderground v.1.15,2013-03-26 08:55:00,
2013-03-26 04:00:00,33.4,21.4,30.40,North,349,0.0,0.0,61,0.00,,,0.00,Wunderground v.1.15,2013-03-26 09:00:00,
2013-03-26 04:10:00,32.9,21.7,30.40,North,349,0.0,0.0,63,0.00,,,0.00,Wunderground v.1.15,2013-03-26 09:10:00,
2013-03-26 04:15:00,32.6,21.4,30.40,North,349,0.0,0.0,63,0.00,,,0.00,Wunderground v.1.15,2013-03-26 09:15:00,
2013-03-26 04:20:00,32.3,21.5,30.40,North,349,0.0,0.0,64,0.00,,,0.00,Wunderground v.1.15,2013-03-26 09:20:00,
2013-03-26 04:25:00,32.1,22.0,30.40,North,349,0.0,0.0,66,0.00,,,0.00,Wunderground v.1.15,2013-03-26 09:25:00,
2013-03-26 04:35:00,31.8,22.1,30.40,North,349,0.0,0.0,67,0.00,,,0.00,Wunderground v.1.15,2013-03-26 09:35:00,
2013-03-26 04:40:00,31.7,22.3,30.40,North,349,0.0,0.0,68,0.00,,,0.00,Wunderground v.1.15,2013-03-26 09:40:00,
2013-03-26 04:45:00,31.7,22.3,30.40,North,349,0.0,0.0,68,0.00,,,0.00,Wunderground v.1.15,2013-03-26 09:45:00,
2013-03-26 04:50:00,31.7,22.7,30.40,North,349,0.0,0.0,69,0.00,,,0.00,Wunderground v.1.15,2013-03-26 09:50:00,
2013-03-26 04:55:00,31.6,22.6,30.40,North,349,0.0,0.0,69,0.00,,,0.00,Wunderground v.1.15,2013-03-26 09:55:00,
2013-03-26 05:00:00,31.5,22.5,30.40,North,349,0.0,0.0,69,0.00,,,0.00,Wunderground v.1.15,2013-03-26 10:00:00,
2013-03-26 05:10:00,31.2,22.5,30.41,North,349,0.0,0.0,70,0.00,,,0.00,Wunderground v.1.15,2013-03-26 10:10:00,
2013-03-26 05:15:00,31.2,22.5,30.41,North,349,0.0,0.0,70,0.00,,,0.00,Wunderground v.1.15,2013-03-26 10:15:00,
2013-03-26 05:20:00,31.2,22.5,30.41,North,349,0.0,0.0,70,0.00,,,0.00,Wunderground v.1.15,2013-03-26 10:20:00,
2013-03-26 05:25:00,31.3,22.3,30.41,North,349,0.0,0.0,69,0.00,,,0.00,Wunderground v.1.15,2013-03-26 10:25:00,
2013-03-26 05:30:00,31.4,22.7,30.41,North,349,0.0,0.0,70,0.00,,,0.00,Wunderground v.1.15,2013-03-26 10:30:00,
2013-03-26 05:35:00,31.6,22.9,30.41,North,349,0.0,0.0,70,0.00,,,0.00,Wunderground v.1.15,2013-03-26 10:35:00,
2013-03-26 05:45:00,31.9,22.9,30.42,North,349,0.0,0.0,69,0.00,,,0.00,Wunderground v.1.15,2013-03-26 10:45:00,
2013-03-26 05:50:00,32.0,23.0,30.41,North,349,0.0,0.0,69,0.00,,,0.00,Wunderground v.1.15,2013-03-26 10:50:00,
2013-03-26 05:55:00,31.9,23.2,30.42,North,349,0.0,0.0,70,0.00,,,0.00,Wunderground v.1.15,2013-03-26 10:55:00,
2013-03-26 06:00:00,31.8,23.5,30.42,North,349,0.0,0.0,71,0.00,,,0.00,Wunderground v.1.15,2013-03-26 11:00:00,
2013-03-26 06:10:00,31.5,23.2,30.43,North,349,0.0,0.0,71,0.00,,,0.00,Wunderground v.1.15,2013-03-26 11:10:00,
2013-03-26 06:15:00,31.2,22.9,30.43,North,349,0.0,0.0,71,0.00,,,0.00,Wunderground v.1.15,2013-03-26 11:15:00,
2013-03-26 06:20:00,31.0,22.4,30.43,North,349,0.0,0.0,70,0.00,,,0.00,Wunderground v.1.15,2013-03-26 11:20:00,
2013-03-26 06:30:00,30.7,21.7,30.44,North,349,0.0,0.0,69,0.00,,,0.00,Wunderground v.1.15,2013-03-26 11:30:00,
2013-03-26 06:35:00,30.5,21.5,30.44,North,349,0.0,0.0,69,0.00,,,0.00,Wunderground v.1.15,2013-03-26 11:35:00,
2013-03-26 06:40:00,30.3,21.7,30.44,North,349,0.0,0.0,70,0.00,,,0.00,Wunderground v.1.15,2013-03-26 11:40:00,
2013-03-26 06:45:00,30.1,21.5,30.45,North,349,0.0,0.0,70,0.00,,,0.00,Wunderground v.1.15,2013-03-26 11:45:00,
2013-03-26 06:55:00,29.7,21.4,30.45,North,349,0.0,0.0,71,0.00,,,0.00,Wunderground v.1.15,2013-03-26 11:55:00,
2013-03-26 07:00:00,29.8,21.9,30.45,North,349,0.0,0.0,72,0.00,,,0.00,Wunderground v.1.15,2013-03-26 12:00:00,
2013-03-26 07:10:00,29.6,22.0,30.45,North,349,0.0,0.0,73,0.00,,,0.00,Wunderground v.1.15,2013-03-26 12:10:00,
2013-03-26 07:15:00,29.6,22.3,30.46,North,349,0.0,0.0,74,0.00,,,0.00,Wunderground v.1.15,2013-03-26 12:15:00,
2013-03-26 07:20:00,29.5,22.2,30.46,North,349,0.0,0.0,74,0.00,,,0.00,Wunderground v.1.15,2013-03-26 12:20:00,
2013-03-26 07:25:00,29.5,22.6,30.46,North,349,0.0,0.0,75,0.00,,,0.00,Wunderground v.1.15,2013-03-26 12:25:00,
2013-03-26 07:30:00,29.5,22.6,30.46,North,349,0.0,0.0,75,0.00,,,0.00,Wunderground v.1.15,2013-03-26 12:30:00,
2013-03-26 07:40:00,29.3,22.4,30.46,North,349,0.0,0.0,75,0.00,,,0.00,Wunderground v.1.15,2013-03-26 12:40:00,
2013-03-26 07:45:00,29.3,22.4,30.47,North,349,0.0,0.0,75,0.00,,,0.00,Wunderground v.1.15,2013-03-26 12:45:00,
2013-03-26 07:50:00,29.4,22.5,30.47,North,349,0.0,0.0,75,0.00,,,0.00,Wunderground v.1.15,2013-03-26 12:50:00,
2013-03-26 07:55:00,29.7,22.4,30.47,North,349,0.0,0.0,74,0.00,,,0.00,Wunderground v.1.15,2013-03-26 12:55:00,
2013-03-26 08:00:00,30.2,22.6,30.47,North,349,0.0,0.0,73,0.00,,,0.00,Wunderground v.1.15,2013-03-26 13:00:00,
2013-03-26 08:10:00,31.7,23.0,30.48,North,360,0.0,0.0,70,0.00,,,0.00,Wunderground v.1.15,2013-03-26 13:10:00,
2013-03-26 08:15:00,32.6,22.8,30.48,North,5,0.0,0.0,67,0.00,,,0.00,Wunderground v.1.15,2013-03-26 13:15:00,
2013-03-26 08:25:00,33.7,23.2,30.49,North,9,0.0,0.0,65,0.00,,,0.00,Wunderground v.1.15,2013-03-26 13:25:00,
2013-03-26 08:30:00,34.3,23.0,30.49,NNE,25,0.0,3.0,63,0.00,,,0.00,Wunderground v.1.15,2013-03-26 13:30:00,
2013-03-26 08:35:00,35.1,23.0,30.49,NE,37,1.0,3.0,61,0.00,,,0.00,Wunderground v.1.15,2013-03-26 13:35:00,
2013-03-26 08:40:00,35.9,23.4,30.50,NE,43,1.0,3.0,60,0.00,,,0.00,Wunderground v.1.15,2013-03-26 13:40:00,
2013-03-26 08:50:00,37.1,22.8,30.50,NE,49,3.0,3.0,56,0.00,,,0.00,Wunderground v.1.15,2013-03-26 13:50:00,
2013-03-26 08:55:00,37.5,22.8,30.50,NE,53,2.0,3.0,55,0.00,,,0.00,Wunderground v.1.15,2013-03-26 13:55:00,
2013-03-26 09:00:00,38.0,22.8,30.50,NE,50,1.0,2.0,54,0.00,,,0.00,Wunderground v.1.15,2013-03-26 14:00:00,
2013-03-26 09:10:00,38.8,22.7,30.51,NE,52,3.0,5.0,52,0.00,,,0.00,Wunderground v.1.15,2013-03-26 14:10:00,
2013-03-26 09:15:00,39.4,22.8,30.51,ENE,59,2.0,5.0,51,0.00,,,0.00,Wunderground v.1.15,2013-03-26 14:15:00,
2013-03-26 09:20:00,39.8,23.6,30.51,ENE,62,2.0,5.0,52,0.00,,,0.00,Wunderground v.1.15,2013-03-26 14:20:00,
2013-03-26 09:25:00,41.3,22.6,30.51,ENE,67,2.0,5.0,47,0.00,,,0.00,Wunderground v.1.15,2013-03-26 14:25:00,
2013-03-26 09:35:00,42.6,24.3,30.51,ENE,65,2.0,2.0,48,0.00,,,0.00,Wunderground v.1.15,2013-03-26 14:35:00,
2013-03-26 09:40:00,43.1,23.7,30.51,ENE,71,2.0,4.0,46,0.00,,,0.00,Wunderground v.1.15,2013-03-26 14:40:00,
2013-03-26 09:45:00,43.6,24.2,30.52,ENE,73,2.0,4.0,46,0.00,,,0.00,Wunderground v.1.15,2013-03-26 14:45:00,
2013-03-26 09:50:00,44.0,24.0,30.51,ENE,73,2.0,2.0,45,0.00,,,0.00,Wunderground v.1.15,2013-03-26 14:50:00,
2013-03-26 09:55:00,44.0,22.9,30.52,ENE,69,2.0,2.0,43,0.00,,,0.00,Wunderground v.1.15,2013-03-26 14:55:00,
2013-03-26 10:00:00,44.4,24.4,30.52,ENE,69,1.0,1.0,45,0.00,,,0.00,Wunderground v.1.15,2013-03-26 15:00:00,
2013-03-26 10:10:00,45.1,23.9,30.52,ENE,76,1.0,2.0,43,0.00,,,0.00,Wunderground v.1.15,2013-03-26 15:10:00,
2013-03-26 10:15:00,45.1,24.5,30.51,ENE,75,2.0,2.0,44,0.00,,,0.00,Wunderground v.1.15,2013-03-26 15:15:00,
2013-03-26 10:20:00,46.3,24.4,30.52,ENE,64,1.0,4.0,42,0.00,,,0.00,Wunderground v.1.15,2013-03-26 15:20:00,
2013-03-26 10:30:00,46.8,23.7,30.52,ENE,63,1.0,1.0,40,0.00,,,0.00,Wunderground v.1.15,2013-03-26 15:30:00,
2013-03-26 10:35:00,46.6,23.5,30.52,ENE,61,0.0,1.0,40,0.00,,,0.00,Wunderground v.1.15,2013-03-26 15:35:00,
2013-03-26 10:40:00,46.5,23.4,30.51,ENE,61,0.0,0.0,40,0.00,,,0.00,Wunderground v.1.15,2013-03-26 15:40:00,
2013-03-26 10:45:00,46.8,23.1,30.52,ENE,61,0.0,3.0,39,0.00,,,0.00,Wunderground v.1.15,2013-03-26 15:45:00,
2013-03-26 10:55:00,47.4,22.4,30.51,ENE,61,1.0,1.0,37,0.00,,,0.00,Wunderground v.1.15,2013-03-26 15:55:00,
2013-03-26 11:00:00,47.6,22.6,30.51,ENE,57,0.0,0.0,37,0.00,,,0.00,Wunderground v.1.15,2013-03-26 16:00:00,
2013-03-26 11:10:00,48.2,22.5,30.51,NE,53,0.0,0.0,36,0.00,,,0.00,Wunderground v.1.15,2013-03-26 16:10:00,
2013-03-26 11:20:00,49.3,23.4,30.51,NE,51,0.0,0.0,36,0.00,,,0.00,Wunderground v.1.15,2013-03-26 16:20:00,
2013-03-26 11:25:00,48.8,23.0,30.50,NE,48,1.0,1.0,36,0.00,,,0.00,Wunderground v.1.15,2013-03-26 16:25:00,
2013-03-26 11:30:00,48.9,23.7,30.50,NE,38,1.0,1.0,37,0.00,,,0.00,Wunderground v.1.15,2013-03-26 16:30:00,
2013-03-26 11:35:00,48.8,22.3,30.50,NE,34,0.0,3.0,35,0.00,,,0.00,Wunderground v.1.15,2013-03-26 16:35:00,
2013-03-26 11:40:00,48.5,21.4,30.49,NE,34,0.0,0.0,34,0.00,,,0.00,Wunderground v.1.15,2013-03-26 16:40:00,
2013-03-26 11:50:00,49.2,21.3,30.49,NNE,25,1.0,1.0,33,0.00,,,0.00,Wunderground v.1.15,2013-03-26 16:50:00,
2013-03-26 11:55:00,48.7,22.9,30.48,NNE,22,1.0,1.0,36,0.00,,,0.00,Wunderground v.1.15,2013-03-26 16:55:00,
2013-03-26 12:00:00,50.2,21.4,30.48,NNE,22,0.0,0.0,32,0.00,,,0.00,Wunderground v.1.15,2013-03-26 17:00:00,
2013-03-26 12:10:00,50.1,20.6,30.48,NNE,22,0.0,0.0,31,0.00,,,0.00,Wunderground v.1.15,2013-03-26 17:10:00,
2013-03-26 12:15:00,50.3,22.3,30.48,NE,48,0.0,5.0,33,0.00,,,0.00,Wunderground v.1.15,2013-03-26 17:15:00,
2013-03-26 12:20:00,51.7,24.9,30.48,ESE,104,1.0,1.0,35,0.00,,,0.00,Wunderground v.1.15,2013-03-26 17:20:00,
2013-03-26 12:25:00,51.9,22.9,30.48,ESE,105,3.0,3.0,32,0.00,,,0.00,Wunderground v.1.15,2013-03-26 17:25:00,
2013-03-26 12:30:00,52.2,22.4,30.48,East,96,1.0,1.0,31,0.00,,,0.00,Wunderground v.1.15,2013-03-26 17:30:00,
2013-03-26 12:40:00,51.8,22.1,30.48,NNW,328,1.0,1.0,31,0.00,,,0.00,Wunderground v.1.15,2013-03-26 17:40:00,
2013-03-26 12:45:00,51.6,23.4,30.47,NE,34,1.0,1.0,33,0.00,,,0.00,Wunderground v.1.15,2013-03-26 17:45:00,
2013-03-26 12:50:00,51.9,22.9,30.47,NNE,28,1.0,1.0,32,0.00,,,0.00,Wunderground v.1.15,2013-03-26 17:50:00,
2013-03-26 12:55:00,52.6,24.3,30.47,NE,34,1.0,1.0,33,0.00,,,0.00,Wunderground v.1.15,2013-03-26 17:55:00,
2013-03-26 13:00:00,53.2,24.1,30.47,North,5,2.0,6.0,32,0.00,,,0.00,Wunderground v.1.15,2013-03-26 18:00:00,
2013-03-26 13:10:00,53.0,24.6,30.46,NNW,330,1.0,1.0,33,0.00,,,0.00,Wunderground v.1.15,2013-03-26 18:10:00,
2013-03-26 13:15:00,53.9,23.9,30.46,NNW,329,0.0,1.0,31,0.00,,,0.00,Wunderground v.1.15,2013-03-26 18:15:00,
2013-03-26 13:25:00,53.5,24.3,30.45,NW,322,5.0,9.0,32,0.00,,,0.00,Wunderground v.1.15,2013-03-26 18:25:00,
2013-03-26 13:30:00,53.2,24.1,30.45,WNW,297,6.0,6.0,32,0.00,,,0.00,Wunderground v.1.15,2013-03-26 18:30:00,
2013-03-26 13:35:00,54.5,22.9,30.45,NNW,346,4.0,6.0,29,0.00,,,0.00,Wunderground v.1.15,2013-03-26 18:35:00,
2013-03-26 13:40:00,54.3,25.8,30.45,NW,306,3.0,4.0,33,0.00,,,0.00,Wunderground v.1.15,2013-03-26 18:40:00,
2013-03-26 13:45:00,54.3,23.5,30.44,NNW,329,2.0,4.0,30,0.00,,,0.00,Wunderground v.1.15,2013-03-26 18:45:00,
2013-03-26 13:55:00,55.4,24.4,30.44,NNW,340,0.0,5.0,30,0.00,,,0.00,Wunderground v.1.15,2013-03-26 18:55:00,
2013-03-26 14:00:00,55.1,24.2,30.43,NW,320,3.0,3.0,30,0.00,,,0.00,Wunderground v.1.15,2013-03-26 19:00:00,
2013-03-26 14:10:00,55.5,23.7,30.42,North,9,4.0,4.0,29,0.00,,,0.00,Wunderground v.1.15,2013-03-26 19:10:00,
2013-03-26 14:15:00,55.9,25.7,30.42,North,355,2.0,6.0,31,0.00,,,0.00,Wunderground v.1.15,2013-03-26 19:15:00,
2013-03-26 14:20:00,56.3,23.6,30.42,North,355,3.0,7.0,28,0.00,,,0.00,Wunderground v.1.15,2013-03-26 19:20:00,
2013-03-26 14:25:00,56.2,24.3,30.41,NNW,331,4.0,7.0,29,0.00,,,0.00,Wunderground v.1.15,2013-03-26 19:25:00,
2013-03-26 14:30:00,55.5,22.0,30.41,NW,326,4.0,5.0,27,0.00,,,0.00,Wunderground v.1.15,2013-03-26 19:30:00,
2013-03-26 14:35:00,55.6,24.6,30.41,WNW,285,3.0,5.0,30,0.00,,,0.00,Wunderground v.1.15,2013-03-26 19:35:00,
2013-03-26 14:45:00,56.8,24.0,30.40,WNW,298,0.0,4.0,28,0.00,,,0.00,Wunderground v.1.15,2013-03-26 19:45:00,
2013-03-26 14:50:00,56.5,21.1,30.40,NNW,348,2.0,2.0,25,0.00,,,0.00,Wunderground v.1.15,2013-03-26 19:50:00,
2013-03-26 14:55:00,56.7,23.0,30.40,North,349,2.0,2.0,27,0.00,,,0.00,Wunderground v.1.15,2013-03-26 19:55:00,
2013-03-26 15:00:00,57.5,26.3,30.39,NNE,17,2.0,3.0,30,0.00,,,0.00,Wunderground v.1.15,2013-03-26 20:00:00,
2013-03-26 15:10:00,58.4,26.2,30.39,North,5,2.0,4.0,29,0.00,,,0.00,Wunderground v.1.15,2013-03-26 20:10:00,
2013-03-26 15:15:00,58.5,24.6,30.39,NW,326,2.0,4.0,27,0.00,,,0.00,Wunderground v.1.15,2013-03-26 20:15:00,
2013-03-26 15:20:00,58.9,25.8,30.38,NW,310,3.0,3.0,28,0.00,,,0.00,Wunderground v.1.15,2013-03-26 20:20:00,
2013-03-26 15:25:00,58.8,24.9,30.38,North,355,3.0,5.0,27,0.00,,,0.00,Wunderground v.1.15,2013-03-26 20:25:00,
2013-03-26 15:35:00,59.1,26.0,30.37,ENE,60,3.0,5.0,28,0.00,,,0.00,Wunderground v.1.15,2013-03-26 20:35:00,
2013-03-26 15:40:00,59.0,25.0,30.37,ENE,57,3.0,6.0,27,0.00,,,0.00,Wunderground v.1.15,2013-03-26 20:40:00,
2013-03-26 15:45:00,59.3,25.3,30.36,ENE,57,3.0,6.0,27,0.00,,,0.00,Wunderground v.1.15,2013-03-26 20:45:00,
2013-03-26 15:50:00,59.6,25.5,30.36,ENE,69,3.0,3.0,27,0.00,,,0.00,Wunderground v.1.15,2013-03-26 20:50:00,
2013-03-26 15:55:00,60.0,24.0,30.36,ENE,72,3.0,3.0,25,0.00,,,0.00,Wunderground v.1.15,2013-03-26 20:55:00,
2013-03-26 16:00:00,58.6,23.8,30.36,ENE,72,2.0,2.0,26,0.00,,,0.00,Wunderground v.1.15,2013-03-26 21:00:00,
2013-03-26 16:10:00,60.2,25.1,30.35,SSE,167,5.0,6.0,26,0.00,,,0.00,Wunderground v.1.15,2013-03-26 21:10:00,
2013-03-26 16:20:00,60.3,25.2,30.35,SSE,157,4.0,4.0,26,0.00,,,0.00,Wunderground v.1.15,2013-03-26 21:20:00,
2013-03-26 16:25:00,60.6,25.5,30.34,South,188,3.0,4.0,26,0.00,,,0.00,Wunderground v.1.15,2013-03-26 21:25:00,
2013-03-26 16:30:00,60.1,24.1,30.34,SW,215,3.0,3.0,25,0.00,,,0.00,Wunderground v.1.15,2013-03-26 21:30:00,
2013-03-26 16:35:00,60.2,25.1,30.34,SW,215,3.0,5.0,26,0.00,,,0.00,Wunderground v.1.15,2013-03-26 21:35:00,
2013-03-26 16:40:00,60.3,24.3,30.34,SW,217,3.0,4.0,25,0.00,,,0.00,Wunderground v.1.15,2013-03-26 21:40:00,
2013-03-26 16:50:00,60.2,25.1,30.33,South,177,3.0,3.0,26,0.00,,,0.00,Wunderground v.1.15,2013-03-26 21:50:00,
2013-03-26 16:55:00,60.4,25.3,30.33,South,177,1.0,4.0,26,0.00,,,0.00,Wunderground v.1.15,2013-03-26 21:55:00,
2013-03-26 17:00:00,60.3,24.3,30.33,South,184,2.0,2.0,25,0.00,,,0.00,Wunderground v.1.15,2013-03-26 22:00:00,
2013-03-26 17:10:00,60.5,25.4,30.32,South,184,1.0,1.0,26,0.00,,,0.00,Wunderground v.1.15,2013-03-26 22:10:00,
2013-03-26 17:15:00,60.6,25.5,30.32,South,184,1.0,1.0,26,0.00,,,0.00,Wunderground v.1.15,2013-03-26 22:15:00,
2013-03-26 17:20:00,60.5,24.5,30.32,South,184,1.0,3.0,25,0.00,,,0.00,Wunderground v.1.15,2013-03-26 22:20:00,
2013-03-26 17:25:00,60.5,25.4,30.32,ESE,122,4.0,9.0,26,0.00,,,0.00,Wunderground v.1.15,2013-03-26 22:25:00,
2013-03-26 17:35:00,59.8,26.6,30.32,ESE,108,6.0,8.0,28,0.00,,,0.00,Wunderground v.1.15,2013-03-26 22:35:00,
2013-03-26 17:40:00,59.8,26.6,30.32,ESE,104,6.0,8.0,28,0.00,,,0.00,Wunderground v.1.15,2013-03-26 22:40:00,
2013-03-26 17:45:00,59.7,26.5,30.31,East,96,7.0,8.0,28,0.00,,,0.00,Wunderground v.1.15,2013-03-26 22:45:00,
2013-03-26 17:50:00,59.6,25.5,30.32,East,101,6.0,6.0,27,0.00,,,0.00,Wunderground v.1.15,2013-03-26 22:50:00,
2013-03-26 17:55:00,59.6,25.5,30.32,East,92,5.0,6.0,27,0.00,,,0.00,Wunderground v.1.15,2013-03-26 22:55:00,
2013-03-26 18:00:00,59.6,25.5,30.32,East,98,4.0,6.0,27,0.00,,,0.00,Wunderground v.1.15,2013-03-26 23:00:00,
2013-03-26 18:10:00,59.5,25.5,30.32,SSE,148,5.0,8.0,27,0.00,,,0.00,Wunderground v.1.15,2013-03-26 23:10:00,
2013-03-26 18:15:00,59.1,26.0,30.31,SE,144,6.0,8.0,28,0.00,,,0.00,Wunderground v.1.15,2013-03-26 23:15:00,
2013-03-26 18:25:00,58.9,25.8,30.31,SE,124,5.0,8.0,28,0.00,,,0.00,Wunderground v.1.15,2013-03-26 23:25:00,
2013-03-26 18:30:00,58.8,26.6,30.31,ESE,114,5.0,5.0,29,0.00,,,0.00,Wunderground v.1.15,2013-03-26 23:30:00,
2013-03-26 18:35:00,58.8,25.7,30.31,ESE,112,5.0,5.0,28,0.00,,,0.00,Wunderground v.1.15,2013-03-26 23:35:00,
2013-03-26 18:40:00,58.7,26.5,30.31,SE,140,4.0,5.0,29,0.00,,,0.00,Wunderground v.1.15,2013-03-26 23:40:00,
2013-03-26 18:50:00,58.1,26.0,30.31,SE,125,6.0,9.0,29,0.00,,,0.00,Wunderground v.1.15,2013-03-26 23:50:00,
2013-03-26 18:55:00,57.7,26.4,30.31,SE,124,6.0,9.0,30,0.00,,,0.00,Wunderground v.1.15,2013-03-26 23:55:00,
2013-03-26 19:00:00,57.3,25.3,30.31,SE,128,5.0,6.0,29,0.00,,,0.00,Wunderground v.1.15,2013-03-27 00:00:00,
2013-03-26 19:10:00,56.8,26.5,30.31,ESE,115,4.0,5.0,31,0.00,,,0.00,Wunderground v.1.15,2013-03-27 00:10:00,
2013-03-26 19:15:00,56.4,26.1,30.31,ESE,119,5.0,5.0,31,0.00,,,0.00,Wunderground v.1.15,2013-03-27 00:15:00,
2013-03-26 19:20:00,55.9,25.7,30.31,ESE,121,5.0,6.0,31,0.00,,,0.00,Wunderground v.1.15,2013-03-27 00:20:00,
2013-03-26 19:25:00,55.3,25.9,30.31,ESE,110,5.0,6.0,32,0.00,,,0.00,Wunderground v.1.15,2013-03-27 00:25:00,
2013-03-26 19:30:00,55.0,26.4,30.30,East,98,5.0,5.0,33,0.00,,,0.00,Wunderground v.1.15,2013-03-27 00:30:00,
2013-03-26 19:35:00,54.6,26.0,30.30,East,96,5.0,5.0,33,0.00,,,0.00,Wunderground v.1.15,2013-03-27 00:35:00,
2013-03-26 19:45:00,53.9,26.1,30.30,East,96,3.0,3.0,34,0.00,,,0.00,Wunderground v.1.15,2013-03-27 00:45:00,
2013-03-26 19:50:00,53.5,26.5,30.30,East,96,3.0,3.0,35,0.00,,,0.00,Wunderground v.1.15,2013-03-27 00:50:00,
2013-03-26 19:55:00,53.0,26.7,30.29,East,96,2.0,3.0,36,0.00,,,0.00,Wunderground v.1.15,2013-03-27 00:55:00,
2013-03-26 20:00:00,52.6,26.4,30.29,East,96,0.0,5.0,36,0.00,,,0.00,Wunderground v.1.15,2013-03-27 01:00:00,
2013-03-26 20:10:00,51.9,26.4,30.30,East,96,3.0,4.0,37,0.00,,,0.00,Wunderground v.1.15,2013-03-27 01:10:00,
2013-03-26 20:15:00,51.5,25.4,30.30,East,96,3.0,4.0,36,0.00,,,0.00,Wunderground v.1.15,2013-03-27 01:15:00,
2013-03-26 20:20:00,51.2,26.4,30.30,East,96,3.0,3.0,38,0.00,,,0.00,Wunderground v.1.15,2013-03-27 01:20:00,
2013-03-26 20:25:00,50.9,26.2,30.30,East,96,3.0,6.0,38,0.00,,,0.00,Wunderground v.1.15,2013-03-27 01:25:00,
2013-03-26 20:35:00,50.3,26.3,30.30,East,96,4.0,5.0,39,0.00,,,0.00,Wunderground v.1.15,2013-03-27 01:35:00,
2013-03-26 20:40:00,50.1,26.7,30.30,East,96,3.0,4.0,40,0.00,,,0.00,Wunderground v.1.15,2013-03-27 01:40:00,
2013-03-26 20:45:00,49.8,27.0,30.30,East,96,3.0,5.0,41,0.00,,,0.00,Wunderground v.1.15,2013-03-27 01:45:00,
2013-03-26 20:50:00,49.5,27.3,30.30,ESE,102,4.0,4.0,42,0.00,,,0.00,Wunderground v.1.15,2013-03-27 01:50:00,
2013-03-26 20:55:00,49.4,27.8,30.30,ESE,102,5.0,5.0,43,0.00,,,0.00,Wunderground v.1.15,2013-03-27 01:55:00,
2013-03-26 21:00:00,49.3,28.3,30.30,ESE,106,4.0,5.0,44,0.00,,,0.00,Wunderground v.1.15,2013-03-27 02:00:00,
2013-03-26 21:10:00,49.1,28.7,30.30,ESE,104,4.0,5.0,45,0.00,,,0.00,Wunderground v.1.15,2013-03-27 02:10:00,
2013-03-26 21:15:00,49.0,28.6,30.31,ESE,104,4.0,5.0,45,0.00,,,0.00,Wunderground v.1.15,2013-03-27 02:15:00,
2013-03-26 21:25:00,48.6,28.2,30.31,ESE,107,4.0,5.0,45,0.00,,,0.00,Wunderground v.1.15,2013-03-27 02:25:00,
2013-03-26 21:30:00,48.4,28.5,30.31,ESE,110,5.0,5.0,46,0.00,,,0.00,Wunderground v.1.15,2013-03-27 02:30:00,
2013-03-26 21:35:00,48.2,28.4,30.31,ESE,109,4.0,5.0,46,0.00,,,0.00,Wunderground v.1.15,2013-03-27 02:35:00,
2013-03-26 21:40:00,48.0,28.2,30.31,ESE,118,5.0,5.0,46,0.00,,,0.00,Wunderground v.1.15,2013-03-27 02:40:00,
2013-03-26 21:50:00,47.6,27.8,30.31,ESE,119,4.0,4.0,46,0.00,,,0.00,Wunderground v.1.15,2013-03-27 02:50:00,
2013-03-26 21:55:00,47.4,27.6,30.32,ESE,119,4.0,5.0,46,0.00,,,0.00,Wunderground v.1.15,2013-03-27 02:55:00,
2013-03-26 22:01:00,47.1,27.9,30.32,ESE,122,5.0,5.0,47,0.00,,,0.00,Wunderground v.1.15,2013-03-27 03:01:00,
2013-03-26 22:10:00,46.7,27.5,30.32,ESE,123,4.0,5.0,47,0.00,,,0.00,Wunderground v.1.15,2013-03-27 03:10:00,
2013-03-26 22:20:00,46.3,27.7,30.32,SE,125,5.0,5.0,48,0.00,,,0.00,Wunderground v.1.15,2013-03-27 03:20:00,
2013-03-26 22:25:00,46.1,27.5,30.32,SE,125,5.0,5.0,48,0.00,,,0.00,Wunderground v.1.15,2013-03-27 03:25:00,
2013-03-26 22:30:00,46.0,27.9,30.32,SE,124,5.0,6.0,49,0.00,,,0.00,Wunderground v.1.15,2013-03-27 03:30:00,
2013-03-26 22:35:00,46.0,27.9,30.32,ESE,111,5.0,6.0,49,0.00,,,0.00,Wunderground v.1.15,2013-03-27 03:35:00,
2013-03-26 22:45:00,46.1,27.5,30.31,ESE,113,5.0,6.0,48,0.00,,,0.00,Wunderground v.1.15,2013-03-27 03:45:00,
2013-03-26 22:50:00,46.2,27.6,30.32,ESE,113,6.0,12.0,48,0.00,,,0.00,Wunderground v.1.15,2013-03-27 03:50:00,
2013-03-26 22:55:00,46.5,27.3,30.31,SE,124,7.0,12.0,47,0.00,,,0.00,Wunderground v.1.15,2013-03-27 03:55:00,
2013-03-26 23:00:00,46.6,27.4,30.32,ESE,122,6.0,6.0,47,0.00,,,0.00,Wunderground v.1.15,2013-03-27 04:00:00,
2013-03-26 23:05:00,46.6,27.4,30.32,ESE,123,6.0,6.0,47,0.00,,,0.00,Wunderground v.1.15,2013-03-27 04:05:00,
2013-03-26 23:10:00,46.6,27.4,30.32,SE,125,6.0,7.0,47,0.00,,,0.00,Wunderground v.1.15,2013-03-27 04:10:00,
2013-03-26 23:15:00,46.5,27.3,30.32,ESE,118,6.0,7.0,47,0.00,,,0.00,Wunderground v.1.15,2013-03-27 04:15:00,
2013-03-26 23:20:00,46.4,27.2,30.32,SE,127,5.0,5.0,47,0.00,,,0.00,Wunderground v.1.15,2013-03-27 04:20:00,
2013-03-26 23:30:00,46.1,27.0,30.32,SE,136,4.0,4.0,47,0.00,,,0.00,Wunderground v.1.15,2013-03-27 04:30:00,
2013-03-26 23:35:00,45.9,27.3,30.32,SE,136,3.0,4.0,48,0.00,,,0.00,Wunderground v.1.15,2013-03-27 04:35:00,
2013-03-26 23:40:00,45.6,27.5,30.32,SE,134,4.0,5.0,49,0.00,,,0.00,Wunderground v.1.15,2013-03-27 04:40:00,
2013-03-26 23:45:00,45.4,27.3,30.32,SE,134,4.0,5.0,49,0.00,,,0.00,Wunderground v.1.15,2013-03-27 04:45:00,
2013-03-26 23:50:00,45.2,27.6,30.31,SE,135,3.0,4.0,50,0.00,,,0.00,Wunderground v.1.15,2013-03-27 04:50:00,